Preview of NWS' New Version of Forecast
This preview is not operational and should not be used for support decisions.

Regional Weather Roundup (RWR)

Issued by National Weather Service (NWS)

                            
000
ASUS43 KBIS 201202
RWRND 

NORTH DAKOTA REGIONAL WEATHER ROUNDUP
NATIONAL WEATHER SERVICE BISMARCK ND
700 AM CDT TUE AUG 20 2019

NOTE: "FAIR" INDICATES FEW OR NO CLOUDS BELOW 12,000 FEET WITH NO
SIGNIFICANT WEATHER AND/OR OBSTRUCTIONS TO VISIBILITY.


NDZ001>003-009>011-017-201300-
NORTHWEST NORTH DAKOTA
  
CITY           SKY/WX    TMP DP  RH WIND       PRES   REMARKS
WILLISTON      CLEAR     52  45  77 N10       30.13R                  
6HR MIN TEMP:  52; 6HR MAX TEMP:  68;                                

MINOT          CLEAR     53  48  83 NW13      30.07R                  
MINOT AFB      CLEAR     52  47  84 NW10      30.07R                  
$$
 
NDZ018>021-031>035-040>046-201300-
SOUTHWEST NORTH DAKOTA
  
CITY           SKY/WX    TMP DP  RH WIND       PRES   REMARKS
BISMARCK       CLOUDY    62  54  74 NW10G18   30.01R                  
6HR MIN TEMP:  62; 6HR MAX TEMP:  74;                                

DICKINSON      MOCLDY    57  50  77 N9        30.08R                  
GARRISON         N/A     54  49  83 N12G20    30.04R                  
6HR MIN TEMP:  54; 6HR MAX TEMP:  69;                                

HETTINGER ARPT MOCLDY    58  51  78 NW8       30.08R                  
$$
 
NDZ004>008-012>016-024-026-027-054-201300-
NORTHEAST NORTH DAKOTA
  
CITY           SKY/WX    TMP DP  RH WIND       PRES   REMARKS
GRAND FORKS    PTCLDY    59  55  87 N17G26    29.86R                  
DEVILS LAKE    PTCLDY    56  53  90 N14       29.98R                  
$$
 
NDZ022-023-025-028>030-036>039-047>053-201300-
SOUTHEAST NORTH DAKOTA
  
CITY           SKY/WX    TMP DP  RH WIND       PRES   REMARKS
FARGO          CLOUDY    66  65  96 NE7       29.86R                  
6HR MIN TEMP:  66; 6HR MAX TEMP:  72; 6HR PCP:  0.05;                

JAMESTOWN      CLEAR     68  65  90 NW17G25   29.88R                  
$$